ORBCOMM FM 9

Satellite information

Favourite Embed

Satellite Type and Status

PAYLOADIN ORBIT

Key statistics

Satellite ORBCOMM FM 9 at a glance.

Uptime

10218

Days in orbit

Revolutions

≈ 14.5

Per day

Orbit

LEO

Low Earth Orbit

Inclination

45.0

Latest

Satellite identification and parameters

Extended collection of information and parameters for ORBCOMM FM 9.

Object identification

Identified? True

Debris? False

Object name: ORBCOMM FM 9

International designator: 1997-084E

Object number (NORAD): 25116

Object ID (CCSDS): 25116

Country: ORBITAL TELECOMMUNICATIONS SATELLITE (GLOBALSTAR) (ORB)

Current information (Y/N): Y

RCS size: MEDIUM

Orbital parameters

Period: 99.589 minutes

Inclination: 45.0131 deg

SMA: 7117.062 km

Apoapsis: 743.67 km

Periapsis: 734.184 km

RAAN: 237.7868 deg

Eccentricy: 0.00066643

Argument of periapsis: 18.9209 deg

Mean anomaly: 341.1889 deg

Mean motion: 14.45944515 rev/day

Mean motion (dot): 0.0000213 rev/day2

B* drag term: 0.00063298143 1/REarth

Two-line elements (TLE)

Creation date: Dec. 12, 2025, 10:14 a.m.

Reference frame: TEME

Reference center: EARTH

Epoch: Dec. 12, 2025, 2:55 a.m. UTC

TLE line 0: 0 ORBCOMM FM 9

TLE line 1: 1 25116U 97084E 25346.12204291 .00002130 00000-0 63298-3 0 9991

TLE line 2: 2 25116 45.0131 237.7868 0006664 18.9209 341.1889 14.45944515467220

Live tracking on map

Real-time ground track for satellite ORBCOMM FM 9.

In-orbit conjunctions

There are no conjunctions computed for ORBCOMM FM 9, at the moment. Check back to stay up to date, as we update our databases every day.

Go to all conjunctions

Associated space launch

ORBCOMM FM 9 was lifted into orbit during the mission ‘Pegasus XL HAPS | Orbcomm-A1 - A8’, on board a Pegasus XL HAPS space rocket.

The launch took place on Dec. 23, 1997, 7:11 p.m. from Wallops Flight Facility.

For more information about the launch, click the button.

Launch to space Pegasus XL HAPS | Orbcomm-A1 - A8
Pegasus XL HAPS | Orbcomm-A1 - A8

Agency: N/A

Status: Launch Successful

Launch date: Dec. 23, 1997, 7:11 p.m. UTC

Rocket: Pegasus XL HAPS

Launch pad: Wallops Flight Facility

Location: Air launch to orbit

...

Latest news about this satellite

There are no fresh news available about this satellite. Check back as we update our databases every day.


Newsletter sign-up

Weekly statistics, charts and insights to help you stay on top of the space industry.